Date,TemperatureHighF,TemperatureAvgF,TemperatureLowF,DewpointHighF,DewpointAvgF,DewpointLowF,HumidityHigh,HumidityAvg,HumidityLow,PressureMaxIn,PressureMinIn,WindSpeedMaxMPH,WindSpeedAvgMPH,GustSpeedMaxMPH,PrecipitationSumIn
2012-1-1,76.0,72.8,65.0,-99.9,-99.9,-99.9,0,0,100,30.27,30.17,11,7,14,0.00
2012-1-2,76.0,67.1,55.0,-99.9,-99.9,-99.9,0,0,100,30.19,30.05,20,9,25,0.00
2012-1-3,55.0,49.7,44.0,-99.9,-99.9,-99.9,0,0,100,30.36,30.16,30,15,45,0.00
2012-1-4,62.0,51.8,41.0,-99.9,-99.9,-99.9,0,0,100,30.38,30.27,18,13,23,0.00
2012-1-5,66.0,57.6,48.0,-99.9,-99.9,-99.9,0,0,100,30.30,30.19,14,8,17,0.00
2012-1-6,68.0,60.6,52.0,-99.9,-99.9,-99.9,0,0,100,30.25,30.15,10,6,11,0.00
2012-1-7,74.0,66.1,58.0,-99.9,-99.9,-99.9,0,0,100,30.22,30.12,9,5,13,0.00
2012-1-8,73.0,68.1,61.0,-99.9,-99.9,-99.9,0,0,100,30.25,30.16,14,9,17,0.00
2012-1-9,74.0,72.5,71.0,-99.9,-99.9,-99.9,0,0,100,30.22,30.11,17,11,21,0.00
2012-1-10,78.0,72.1,64.0,-99.9,-99.9,-99.9,0,0,100,30.12,30.00,15,7,16,0.00
2012-1-11,75.0,71.9,66.0,-99.9,-99.9,-99.9,0,0,100,30.01,29.82,33,13,36,0.00
2012-1-12,75.0,70.8,66.0,-99.9,-99.9,-99.9,0,0,100,29.99,29.85,17,-6,20,0.00
2012-1-13,70.0,67.4,64.0,-99.9,-99.9,-99.9,0,0,100,30.17,29.99,13,6,16,0.00
2012-1-14,64.0,57.0,53.0,-99.9,-99.9,-99.9,0,0,100,30.35,30.16,18,13,24,0.00
2012-1-15,64.0,57.7,49.0,-99.9,-99.9,-99.9,0,0,100,30.44,30.33,23,14,28,0.00
2012-1-16,70.0,67.3,59.0,-99.9,-99.9,-99.9,0,0,100,30.43,30.32,23,18,28,0.00
2012-1-17,73.0,71.7,69.0,-99.9,-99.9,-99.9,0,0,100,30.34,30.18,20,12,24,0.00
2012-1-18,78.0,70.1,62.0,-99.9,-99.9,-99.9,0,0,100,30.18,29.98,15,0,17,0.00
2012-1-19,71.0,67.7,64.0,-99.9,-99.9,-99.9,0,0,100,30.15,30.00,24,13,28,0.00
2012-1-20,72.0,70.4,69.0,-99.9,-99.9,-99.9,0,0,100,30.22,30.12,16,10,20,0.00
2012-1-21,73.0,71.5,70.0,-99.9,-99.9,-99.9,0,0,100,30.17,30.06,16,12,20,0.00
2012-1-22,74.0,69.5,63.0,-99.9,-99.9,-99.9,0,0,100,30.14,30.06,15,9,17,0.00
2012-1-23,75.0,73.6,70.0,-99.9,-99.9,-99.9,0,0,100,30.14,30.09,18,12,22,0.00
2012-1-24,75.0,73.9,70.0,-99.9,-99.9,-99.9,0,0,100,30.19,30.10,21,12,23,0.00
2012-1-25,75.0,74.0,73.0,-99.9,-99.9,-99.9,0,0,100,30.20,30.11,18,14,21,0.00
2012-1-26,76.0,74.5,72.0,-99.9,-99.9,-99.9,0,0,100,30.14,30.01,22,18,26,0.00
2012-1-27,78.0,75.2,71.0,-99.9,-99.9,-99.9,0,0,100,30.08,29.96,24,15,29,0.00
2012-1-28,75.0,71.3,69.0,-99.9,-99.9,-99.9,0,0,100,30.16,30.06,17,8,20,0.00
2012-1-29,73.0,71.6,70.0,-99.9,-99.9,-99.9,0,0,100,30.26,30.13,22,16,25,0.00
2012-1-30,72.0,71.3,70.0,-99.9,-99.9,-99.9,0,0,100,30.32,30.21,24,12,29,0.00
2012-1-31,72.0,70.9,70.0,-99.9,-99.9,-99.9,0,0,100,30.34,30.24,21,15,26,0.00
2012-2-1,75.0,72.8,70.0,-99.9,-99.9,-99.9,0,0,100,30.26,30.15,20,13,23,0.00
2012-2-2,75.0,70.0,67.0,-99.9,-99.9,-99.9,0,0,100,30.18,30.10,20,9,22,0.00
2012-2-3,75.0,73.8,73.0,-99.9,-99.9,-99.9,0,0,100,30.22,30.12,26,19,30,0.00
2012-2-4,74.0,73.1,72.0,-99.9,-99.9,-99.9,0,0,100,30.19,30.07,26,20,30,0.00
2012-2-5,76.0,74.8,72.0,-99.9,-99.9,-99.9,0,0,100,30.08,30.00,17,12,22,0.00
2012-2-6,76.0,74.1,69.0,-99.9,-99.9,-99.9,0,0,100,30.08,29.99,22,13,24,0.00
2012-2-7,76.0,73.5,70.0,-99.9,-99.9,-99.9,0,0,100,30.04,29.94,17,9,21,0.00
2012-2-8,75.0,70.7,68.0,-99.9,-99.9,-99.9,0,0,100,30.06,29.98,25,12,29,0.00
2012-2-9,74.0,72.2,69.0,-99.9,-99.9,-99.9,0,0,100,30.11,30.01,24,19,29,0.00
2012-2-10,76.0,73.8,71.0,-99.9,-99.9,-99.9,0,0,100,30.08,29.89,22,14,24,0.00
2012-2-11,72.0,66.4,56.0,-99.9,-99.9,-99.9,0,0,100,30.07,29.87,22,12,31,0.00
2012-2-12,56.0,51.8,46.0,-99.9,-99.9,-99.9,0,0,100,30.27,30.07,28,19,33,0.00
2012-2-13,67.0,58.6,48.0,-99.9,-99.9,-99.9,0,0,100,30.24,30.14,16,12,22,0.00
2012-2-14,73.0,69.0,62.0,-99.9,-99.9,-99.9,0,0,100,30.16,30.09,17,12,20,0.00
2012-2-15,75.0,72.4,65.0,-99.9,-99.9,-99.9,0,0,100,30.22,30.13,16,9,21,0.00
2012-2-16,74.0,73.9,73.0,-99.9,-99.9,-99.9,0,0,100,30.21,30.09,17,14,20,0.00
2012-2-17,78.0,72.8,68.0,-99.9,-99.9,-99.9,0,0,100,30.11,30.01,18,8,20,0.00
2012-2-18,76.0,73.0,68.0,-99.9,-99.9,-99.9,0,0,100,30.04,29.92,21,10,23,0.00
2012-2-19,84.0,76.6,71.0,-99.9,-99.9,-99.9,0,0,100,29.97,29.84,21,14,30,0.00
2012-2-20,71.0,66.5,61.0,-99.9,-99.9,-99.9,0,0,100,30.17,29.93,22,14,26,0.00
2012-2-21,72.0,70.0,68.0,-99.9,-99.9,-99.9,0,0,100,30.23,30.14,20,11,23,0.00
2012-2-22,74.0,71.2,64.0,-99.9,-99.9,-99.9,0,0,100,30.16,29.96,22,12,23,0.00
2012-2-23,78.0,72.7,67.0,-99.9,-99.9,-99.9,0,0,100,30.02,29.93,22,10,24,0.00
2012-2-24,77.0,74.4,71.0,-99.9,-99.9,-99.9,0,0,100,30.06,29.96,24,14,26,0.00
2012-2-25,77.0,71.4,70.0,-99.9,-99.9,-99.9,0,0,100,30.20,30.03,26,15,33,0.00
2012-2-26,74.0,72.0,70.0,-99.9,-99.9,-99.9,0,0,100,30.28,30.19,25,20,29,0.00
2012-2-27,77.0,75.2,73.0,-99.9,-99.9,-99.9,0,0,100,30.29,30.22,23,17,26,0.00
2012-2-28,77.0,75.6,75.0,-99.9,-99.9,-99.9,0,0,100,30.27,30.19,16,12,18,0.00
2012-2-29,76.0,75.3,73.0,-99.9,-99.9,-99.9,0,0,100,30.24,30.12,21,15,26,0.00
2012-3-1,77.0,75.5,72.0,-99.9,-99.9,-99.9,0,0,100,30.15,30.03,20,13,23,0.00
2012-3-2,77.0,74.9,71.0,-99.9,-99.9,-99.9,0,0,100,30.08,29.99,21,-24,23,0.00
2012-3-3,77.0,76.2,76.0,-99.9,-99.9,-99.9,0,0,100,30.00,29.87,25,20,29,0.00
2012-3-4,80.0,69.2,59.0,-99.9,-99.9,-99.9,0,0,100,30.19,29.84,26,16,53,0.00
2012-3-5,69.0,62.0,55.0,-99.9,-99.9,-99.9,0,0,100,30.34,30.19,25,15,29,0.00
2012-3-6,73.0,70.8,68.0,-99.9,-99.9,-99.9,0,0,100,30.38,30.28,31,23,37,0.00
2012-3-7,73.0,72.0,71.0,-99.9,-99.9,-99.9,0,0,100,30.37,30.28,29,24,32,0.00
2012-3-8,76.0,73.7,70.0,-99.9,-99.9,-99.9,0,0,100,30.28,30.17,26,21,30,0.00
2012-3-9,76.0,75.6,74.0,-99.9,-99.9,-99.9,0,0,100,30.22,30.11,21,15,24,0.00
2012-3-10,76.0,73.5,70.0,-99.9,-99.9,-99.9,0,0,100,30.20,30.09,18,9,22,0.00
2012-3-11,76.0,73.8,71.0,-99.9,-99.9,-99.9,0,0,100,30.28,30.17,28,20,34,0.00
2012-3-12,74.0,72.5,71.0,-99.9,-99.9,-99.9,0,0,100,30.30,30.20,25,18,29,0.00
2012-3-13,74.0,73.0,72.0,-99.9,-99.9,-99.9,0,0,100,30.25,30.18,18,11,22,0.00
2012-3-14,74.0,73.5,72.0,-99.9,-99.9,-99.9,0,0,100,30.23,30.13,21,14,25,0.00
2012-3-15,75.0,74.1,71.0,-99.9,-99.9,-99.9,0,0,100,30.23,30.13,26,18,31,0.00
2012-3-16,75.0,73.8,73.0,-99.9,-99.9,-99.9,0,0,100,30.24,30.13,21,14,24,0.00
2012-3-17,74.0,73.5,72.0,-99.9,-99.9,-99.9,0,0,100,30.23,30.14,17,12,20,0.00
2012-3-18,75.0,74.1,72.0,-99.9,-99.9,-99.9,0,0,100,30.24,30.15,21,14,24,0.00
2012-3-19,75.0,73.7,73.0,-99.9,-99.9,-99.9,0,0,100,30.19,30.09,20,13,22,0.00
2012-3-20,76.0,73.9,73.0,-99.9,-99.9,-99.9,0,0,100,30.13,30.04,21,16,25,0.00
2012-3-21,76.0,75.4,70.0,-99.9,-99.9,-99.9,0,0,100,30.16,30.05,28,20,31,0.00
2012-3-22,76.0,75.6,75.0,-99.9,-99.9,-99.9,0,0,100,30.18,30.09,22,16,25,0.00
2012-3-23,76.0,74.8,71.0,-99.9,-99.9,-99.9,0,0,100,30.14,30.05,22,11,25,0.00
2012-3-24,76.0,74.6,68.0,-99.9,-99.9,-99.9,0,0,100,30.07,29.95,21,12,23,0.00
2012-3-25,81.0,76.0,71.0,-99.9,-99.9,-99.9,0,0,100,29.99,29.81,22,11,29,0.00
2012-3-26,76.0,71.3,65.0,-99.9,-99.9,-99.9,0,0,100,30.00,29.88,21,11,24,0.00
2012-3-27,76.0,74.1,71.0,-99.9,-99.9,-99.9,0,0,100,30.18,29.99,23,15,26,0.00
2012-3-28,74.0,73.9,73.0,-99.9,-99.9,-99.9,0,0,100,30.19,30.09,22,17,25,0.00
2012-3-29,75.0,73.5,71.0,-99.9,-99.9,-99.9,0,0,100,30.10,30.01,16,9,17,0.00
2012-3-30,75.0,73.1,67.0,-99.9,-99.9,-99.9,0,0,100,30.10,30.00,15,8,17,0.00
2012-3-31,77.0,73.9,70.0,-99.9,-99.9,-99.9,0,0,100,30.04,29.88,28,13,33,0.00
2012-4-1,78.0,73.6,69.0,-99.9,-99.9,-99.9,0,0,100,29.96,29.88,15,7,16,0.00
2012-4-2,80.0,76.2,69.0,-99.9,-99.9,-99.9,0,0,100,29.94,29.86,15,8,17,0.00
2012-4-3,80.0,76.5,71.0,-99.9,-99.9,-99.9,0,0,100,29.99,29.91,15,9,17,0.00
2012-4-4,79.0,76.4,72.0,-99.9,-99.9,-99.9,0,0,100,30.00,29.84,23,12,25,0.00
2012-4-5,87.0,77.5,71.0,-99.9,-99.9,-99.9,0,0,100,29.90,29.74,20,10,24,0.00
2012-4-6,87.0,78.1,73.0,-99.9,-99.9,-99.9,0,0,100,29.91,29.74,21,12,29,0.00
2012-4-7,76.0,74.0,72.0,-99.9,-99.9,-99.9,0,0,100,30.12,29.90,28,21,31,0.00
2012-4-8,73.0,71.9,71.0,-99.9,-99.9,-99.9,0,0,100,30.18,30.10,22,13,25,0.00
2012-4-9,75.0,73.3,71.0,-99.9,-99.9,-99.9,0,0,100,30.11,30.02,15,10,17,0.00
2012-4-10,78.0,73.9,68.0,-99.9,-99.9,-99.9,0,0,100,30.11,30.01,13,-16,14,0.00
2012-4-11,80.0,74.6,68.0,-99.9,-99.9,-99.9,0,0,100,30.07,29.96,14,8,15,0.00
2012-4-12,77.0,73.7,67.0,-99.9,-99.9,-99.9,0,0,100,30.06,29.96,18,10,22,0.00
2012-4-13,76.0,74.7,69.0,-99.9,-99.9,-99.9,0,0,100,30.13,30.01,24,16,28,0.00
2012-4-14,75.0,73.3,69.0,-99.9,-99.9,-99.9,0,0,100,30.24,30.09,29,23,34,0.00
2012-4-15,76.0,73.4,72.0,-99.9,-99.9,-99.9,0,0,100,30.23,30.16,22,18,26,0.00
2012-4-16,77.0,75.7,75.0,-99.9,-99.9,-99.9,0,0,100,30.23,30.12,25,18,29,0.00
2012-4-17,76.0,75.0,74.0,-99.9,-99.9,-99.9,0,0,100,30.19,30.09,24,15,28,0.00
2012-4-18,76.0,75.1,74.0,-99.9,-99.9,-99.9,0,0,100,30.12,29.99,20,14,22,0.00
2012-4-19,76.0,75.6,75.0,-99.9,-99.9,-99.9,0,0,100,30.02,29.91,18,15,21,0.00
2012-4-20,78.0,75.0,68.0,-99.9,-99.9,-99.9,0,0,100,29.97,29.84,22,13,25,0.00
2012-4-21,76.0,73.4,68.0,-99.9,-99.9,-99.9,0,0,100,29.94,29.69,32,18,34,0.00
2012-4-22,80.0,74.4,66.0,-99.9,-99.9,-99.9,0,0,100,29.75,29.57,31,15,37,0.00
2012-4-23,78.0,70.2,65.0,-99.9,-99.9,-99.9,0,0,100,29.93,29.73,21,11,31,0.00
2012-4-24,70.0,64.9,59.0,-99.9,-99.9,-99.9,0,0,100,30.05,29.90,17,1,24,0.00
2012-4-25,73.0,67.7,59.0,-99.9,-99.9,-99.9,0,0,100,30.14,30.03,15,9,17,0.00
2012-4-26,75.0,71.8,65.0,-99.9,-99.9,-99.9,0,0,100,30.17,30.08,16,8,18,0.00
2012-4-27,77.0,75.0,71.0,-99.9,-99.9,-99.9,0,0,100,30.15,30.06,16,9,20,0.00
2012-4-28,77.0,75.3,68.0,-99.9,-99.9,-99.9,0,0,100,30.11,30.05,24,12,28,0.00
2012-4-29,77.0,74.2,73.0,-99.9,-99.9,-99.9,0,0,100,30.09,30.01,29,20,32,0.00
2012-4-30,76.0,74.7,73.0,-99.9,-99.9,-99.9,0,0,100,30.08,30.01,30,25,36,0.00
2012-5-1,77.0,76.1,71.0,-99.9,-99.9,-99.9,0,0,100,30.10,30.02,29,20,32,0.00
2012-5-2,77.0,76.6,76.0,-99.9,-99.9,-99.9,0,0,100,30.12,30.02,22,18,25,0.00
2012-5-3,78.0,76.8,76.0,-99.9,-99.9,-99.9,0,0,100,30.12,30.05,22,15,24,0.00
2012-5-4,78.0,76.6,76.0,-99.9,-99.9,-99.9,0,0,100,30.12,30.03,18,11,21,0.00
2012-5-5,78.0,77.0,76.0,-99.9,-99.9,-99.9,0,0,100,30.05,29.96,15,11,17,0.00
2012-5-6,79.0,76.1,72.0,-99.9,-99.9,-99.9,0,0,100,30.01,29.90,20,10,21,0.00
2012-5-7,81.0,76.9,73.0,-99.9,-99.9,-99.9,0,0,100,29.95,29.86,20,10,22,0.00
2012-5-8,79.0,75.4,73.0,-99.9,-99.9,-99.9,0,0,100,29.94,29.88,21,1,22,0.00
2012-5-9,81.0,76.0,73.0,-99.9,-99.9,-99.9,0,0,100,29.93,29.81,26,-12,38,0.00
2012-5-10,85.0,77.5,74.0,-99.9,-99.9,-99.9,0,0,100,29.91,29.80,18,8,21,0.00
2012-5-11,80.0,77.9,74.0,-99.9,-99.9,-99.9,0,0,100,30.10,29.89,21,14,23,0.00
2012-5-12,78.0,77.7,77.0,-99.9,-99.9,-99.9,0,0,100,30.19,30.07,22,18,25,0.00
2012-5-13,78.0,77.4,76.0,-99.9,-99.9,-99.9,0,0,100,30.14,30.03,20,15,22,0.00
2012-5-14,80.0,78.8,78.0,-99.9,-99.9,-99.9,0,0,100,30.08,29.95,15,11,17,0.00
2012-5-15,80.0,78.3,72.0,-99.9,-99.9,-99.9,0,0,100,30.03,29.96,18,8,22,0.00
2012-5-16,81.0,77.5,74.0,-99.9,-99.9,-99.9,0,0,100,30.03,29.93,9,5,13,0.00
2012-5-17,81.0,76.4,70.0,-99.9,-99.9,-99.9,0,0,100,29.99,29.88,21,4,24,0.00
2012-5-18,81.0,76.7,73.0,-99.9,-99.9,-99.9,0,0,100,29.96,29.89,31,6,40,0.00
2012-5-19,79.0,75.8,72.0,-99.9,-99.9,-99.9,0,0,100,29.99,29.90,21,-22,25,0.00
2012-5-20,80.0,76.5,72.0,-99.9,-99.9,-99.9,0,0,100,29.99,29.91,14,8,15,0.00
2012-5-21,81.0,77.6,71.0,-99.9,-99.9,-99.9,0,0,100,30.00,29.93,16,-13,20,0.00
2012-5-22,80.0,77.3,72.0,-99.9,-99.9,-99.9,0,0,100,30.01,29.91,23,11,29,0.00
2012-5-23,79.0,77.5,76.0,-99.9,-99.9,-99.9,0,0,100,29.95,29.87,26,15,30,0.00
2012-5-24,79.0,76.7,74.0,-99.9,-99.9,-99.9,0,0,100,29.91,29.84,23,12,30,0.00
2012-5-25,80.0,77.2,72.0,-99.9,-99.9,-99.9,0,0,100,30.04,29.89,15,8,17,0.00
2012-5-26,80.0,79.1,76.0,-99.9,-99.9,-99.9,0,0,100,30.05,29.97,14,-21,16,0.00
2012-5-27,83.0,78.2,71.0,-99.9,-99.9,-99.9,0,0,100,29.98,29.86,29,12,31,0.00
2012-5-28,81.0,79.2,73.0,-99.9,-99.9,-99.9,0,0,100,29.99,29.90,22,13,31,0.00
2012-5-29,81.0,79.5,73.0,-99.9,-99.9,-99.9,0,0,100,30.00,29.91,24,11,28,0.00
2012-5-30,88.0,80.4,75.0,-99.9,-99.9,-99.9,0,0,100,29.97,29.84,23,10,25,0.00
2012-5-31,82.0,79.3,76.0,-99.9,-99.9,-99.9,0,0,100,29.97,29.88,18,9,22,0.00
2012-6-1,80.0,76.9,73.0,-99.9,-99.9,-99.9,0,0,100,30.00,29.88,23,10,26,0.00
2012-6-2,87.0,80.4,76.0,-99.9,-99.9,-99.9,0,0,100,29.98,29.89,17,9,22,0.00
2012-6-3,85.0,78.9,74.0,-99.9,-99.9,-99.9,0,0,100,30.05,29.95,13,8,18,0.00
2012-6-4,90.0,83.9,79.0,-99.9,-99.9,-99.9,0,0,100,30.02,29.88,15,10,22,0.00
2012-6-5,87.0,80.6,78.0,-99.9,-99.9,-99.9,0,0,100,29.91,29.83,20,-20,22,0.00
2012-6-6,84.0,80.3,74.0,-99.9,-99.9,-99.9,0,0,100,29.98,29.89,23,-86,26,0.00
2012-6-7,88.0,82.3,79.0,-99.9,-99.9,-99.9,0,0,100,29.99,29.93,16,9,20,0.00
2012-6-8,83.0,78.6,71.0,-99.9,-99.9,-99.9,0,0,100,30.00,29.92,22,-8,31,0.00
2012-6-9,82.0,79.9,76.0,-99.9,-99.9,-99.9,0,0,100,30.05,29.95,17,2,18,0.00
2012-6-10,83.0,81.9,81.0,-99.9,-99.9,-99.9,0,0,100,30.14,30.00,14,10,16,0.00
2012-6-11,82.0,80.7,80.0,-99.9,-99.9,-99.9,0,0,100,30.14,30.06,14,10,17,0.00
2012-6-12,80.0,79.3,78.0,-99.9,-99.9,-99.9,0,0,100,30.11,29.99,14,8,17,0.00
2012-6-13,83.0,80.0,75.0,-99.9,-99.9,-99.9,0,0,100,30.01,29.90,17,8,20,0.00
2012-6-14,86.0,80.4,76.0,-99.9,-99.9,-99.9,0,0,100,30.01,29.90,17,6,23,0.00
2012-6-15,82.0,79.2,75.0,-99.9,-99.9,-99.9,0,0,100,30.03,29.91,18,10,22,0.00
2012-6-16,81.0,80.2,76.0,-99.9,-99.9,-99.9,0,0,100,30.05,29.95,21,16,24,0.00
2012-6-17,80.0,79.6,79.0,-99.9,-99.9,-99.9,0,0,100,30.05,29.96,18,15,22,0.00
2012-6-18,81.0,79.7,78.0,-99.9,-99.9,-99.9,0,0,100,30.05,29.95,22,16,24,0.00
2012-6-19,81.0,80.0,77.0,-99.9,-99.9,-99.9,0,0,100,30.06,29.99,28,21,32,0.00
2012-6-20,81.0,78.2,74.0,-99.9,-99.9,-99.9,0,0,100,30.03,29.96,29,16,34,0.00
2012-6-21,81.0,79.8,76.0,-99.9,-99.9,-99.9,0,0,100,30.01,29.89,17,12,20,0.00
2012-6-22,81.0,78.8,75.0,-99.9,-99.9,-99.9,0,0,100,29.97,29.85,22,12,24,0.00
2012-6-23,82.0,78.9,73.0,-99.9,-99.9,-99.9,0,0,100,30.03,29.87,18,-24,29,0.00
2012-6-24,83.0,79.7,76.0,-99.9,-99.9,-99.9,0,0,100,30.01,29.87,29,20,36,0.00
2012-6-25,83.0,82.2,82.0,-99.9,-99.9,-99.9,0,0,100,29.88,29.78,31,25,36,0.00
2012-6-26,88.0,83.7,78.0,-99.9,-99.9,-99.9,0,0,100,29.79,29.72,32,20,39,0.00
2012-6-27,88.0,82.5,76.0,-99.9,-99.9,-99.9,0,0,100,30.01,29.76,26,16,36,0.00
2012-6-28,82.0,78.8,74.0,-99.9,-99.9,-99.9,0,0,100,30.09,30.00,15,8,17,0.00
2012-6-29,83.0,81.5,80.0,-99.9,-99.9,-99.9,0,0,100,30.08,29.96,15,8,16,0.00
2012-6-30,84.0,81.8,78.0,-99.9,-99.9,-99.9,0,0,100,30.02,29.94,15,10,17,0.00
2012-7-1,84.0,81.9,79.0,-99.9,-99.9,-99.9,0,0,100,30.10,29.99,15,9,17,0.00
2012-7-2,84.0,82.3,80.0,-99.9,-99.9,-99.9,0,0,100,30.12,30.01,17,9,21,0.00
2012-7-3,84.0,82.1,79.0,-99.9,-99.9,-99.9,0,0,100,30.10,30.01,14,-31,16,0.00
2012-7-4,84.0,83.1,82.0,-99.9,-99.9,-99.9,0,0,100,30.11,30.03,14,8,16,0.00
2012-7-5,84.0,81.8,79.0,-99.9,-99.9,-99.9,0,0,100,30.08,30.00,13,-8,16,0.00
2012-7-6,83.0,82.9,82.0,-99.9,-99.9,-99.9,0,0,100,30.07,30.02,16,9,20,0.00
2012-7-7,84.0,82.8,82.0,-99.9,-99.9,-99.9,0,0,100,30.11,30.04,17,9,21,0.00
2012-7-8,84.0,82.2,80.0,-99.9,-99.9,-99.9,0,0,100,30.10,30.03,16,9,20,0.00
2012-7-9,83.0,81.7,78.0,-99.9,-99.9,-99.9,0,0,100,30.07,29.99,14,8,16,0.00
2012-7-10,84.0,81.9,73.0,-99.9,-99.9,-99.9,0,0,100,30.06,29.97,18,10,24,0.00
2012-7-11,81.0,78.4,74.0,-99.9,-99.9,-99.9,0,0,100,30.08,29.97,24,9,29,0.00
2012-7-12,83.0,80.4,78.0,-99.9,-99.9,-99.9,0,0,100,30.05,29.98,16,7,23,0.00
2012-7-13,83.0,81.8,80.0,-99.9,-99.9,-99.9,0,0,100,30.07,30.00,21,12,23,0.00
2012-7-14,83.0,81.8,78.0,-99.9,-99.9,-99.9,0,0,100,30.10,30.00,23,14,30,0.00
2012-7-15,82.0,79.2,74.0,-99.9,-99.9,-99.9,0,0,100,30.13,30.05,17,10,21,0.00
2012-7-16,80.0,77.5,73.0,-99.9,-99.9,-99.9,0,0,100,30.12,30.01,16,8,21,0.00
2012-7-17,84.0,79.4,75.0,-99.9,-99.9,-99.9,0,0,100,30.06,29.98,20,7,23,0.00
2012-7-18,84.0,81.6,76.0,-99.9,-99.9,-99.9,0,0,100,30.15,30.02,20,9,22,0.00
2012-7-19,84.0,82.8,80.0,-99.9,-99.9,-99.9,0,0,100,30.20,30.12,16,9,17,0.00
2012-7-20,84.0,83.0,82.0,-99.9,-99.9,-99.9,0,0,100,30.16,30.06,15,11,17,0.00
2012-7-21,85.0,83.6,83.0,-99.9,-99.9,-99.9,0,0,100,30.13,30.05,17,12,20,0.00
2012-7-22,85.0,80.6,74.0,-99.9,-99.9,-99.9,0,0,100,30.15,30.06,24,12,30,0.00
2012-7-23,83.0,80.3,76.0,-99.9,-99.9,-99.9,0,0,100,30.19,30.11,26,12,30,0.00
2012-7-24,84.0,82.0,73.0,-99.9,-99.9,-99.9,0,0,100,30.16,30.03,23,12,34,0.00
2012-7-25,86.0,82.3,77.0,-99.9,-99.9,-99.9,0,0,100,30.09,30.01,17,9,20,0.00
2012-7-26,87.0,83.0,80.0,-99.9,-99.9,-99.9,0,0,100,30.06,29.99,18,9,20,0.00
2012-7-27,86.0,83.0,80.0,-99.9,-99.9,-99.9,0,0,100,30.12,30.01,16,9,17,0.00
2012-7-28,84.0,83.0,80.0,-99.9,-99.9,-99.9,0,0,100,30.13,30.05,17,-6,20,0.00
2012-7-29,85.0,83.0,80.0,-99.9,-99.9,-99.9,0,0,100,30.12,30.02,14,9,16,0.00
2012-7-30,85.0,82.7,80.0,-99.9,-99.9,-99.9,0,0,100,30.08,29.99,15,8,18,0.00
2012-7-31,85.0,82.4,78.0,-99.9,-99.9,-99.9,0,0,100,30.07,29.98,17,-6,18,0.00
2012-8-1,87.0,82.7,77.0,-99.9,-99.9,-99.9,0,0,100,30.04,29.95,18,9,28,0.00
2012-8-2,87.0,83.7,80.0,-99.9,-99.9,-99.9,0,0,100,30.01,29.94,17,8,18,0.00
2012-8-3,85.0,82.4,74.0,-99.9,-99.9,-99.9,0,0,100,30.03,29.93,37,10,44,0.00
2012-8-4,85.0,81.9,77.0,-99.9,-99.9,-99.9,0,0,100,30.08,29.95,21,10,22,0.00
2012-8-5,85.0,83.5,79.0,-99.9,-99.9,-99.9,0,0,100,30.11,30.02,20,13,23,0.00
2012-8-6,84.0,81.1,76.0,-99.9,-99.9,-99.9,0,0,100,30.09,30.01,29,-1,31,0.00
2012-8-7,85.0,83.5,76.0,-99.9,-99.9,-99.9,0,0,100,30.07,29.97,16,11,20,0.00
2012-8-8,85.0,83.9,83.0,-99.9,-99.9,-99.9,0,0,100,30.07,29.99,14,10,16,0.00
2012-8-9,85.0,83.8,83.0,-99.9,-99.9,-99.9,0,0,100,30.05,29.94,18,12,22,0.00
2012-8-10,84.0,81.3,78.0,-99.9,-99.9,-99.9,0,0,100,30.02,29.95,21,13,26,0.00
2012-8-11,83.0,79.3,75.0,-99.9,-99.9,-99.9,0,0,100,30.05,29.95,21,10,23,0.00
2012-8-12,85.0,80.3,76.0,-99.9,-99.9,-99.9,0,0,100,30.07,29.99,18,5,21,0.00
2012-8-13,85.0,82.5,78.0,-99.9,-99.9,-99.9,0,0,100,30.09,30.01,10,-9,11,0.00
2012-8-14,87.0,84.0,81.0,-99.9,-99.9,-99.9,0,0,100,30.07,29.98,14,-1,15,0.00
2012-8-15,85.0,84.1,81.0,-99.9,-99.9,-99.9,0,0,100,30.06,29.99,18,-27,21,0.00
2012-8-16,86.0,83.7,81.0,-99.9,-99.9,-99.9,0,0,100,30.10,30.01,14,7,14,0.00
2012-8-17,85.0,81.8,76.0,-99.9,-99.9,-99.9,0,0,100,30.07,29.95,18,7,23,0.00
2012-8-18,89.0,81.6,75.0,-99.9,-99.9,-99.9,0,0,100,30.02,29.93,14,7,17,0.00
2012-8-19,86.0,83.2,80.0,-99.9,-99.9,-99.9,0,0,100,30.03,29.94,22,12,24,0.00
2012-8-20,86.0,83.4,81.0,-99.9,-99.9,-99.9,0,0,100,30.03,29.93,22,10,25,0.00
2012-8-21,85.0,82.3,74.0,-99.9,-99.9,-99.9,0,0,100,30.10,29.99,17,8,20,0.00
2012-8-22,86.0,81.0,75.0,-99.9,-99.9,-99.9,0,0,100,30.11,30.03,14,-8,18,0.00
2012-8-23,86.0,83.4,78.0,-99.9,-99.9,-99.9,0,0,100,30.10,30.03,16,7,20,0.00
2012-8-24,85.0,82.0,75.0,-99.9,-99.9,-99.9,0,0,100,30.06,29.95,24,13,26,0.00
2012-8-25,85.0,80.1,73.0,-99.9,-99.9,-99.9,0,0,100,29.99,29.90,31,19,34,0.00
2012-8-26,85.0,80.1,75.0,-99.9,-99.9,-99.9,0,0,100,29.91,29.72,38,29,51,0.00
2012-8-27,85.0,80.4,74.0,-99.9,-99.9,-99.9,0,0,100,29.96,29.75,44,30,52,0.00
2012-8-28,83.0,82.4,76.0,-99.9,-99.9,-99.9,0,0,100,30.03,29.93,32,17,46,0.00
2012-8-29,83.0,82.6,82.0,-99.9,-99.9,-99.9,0,0,100,30.02,29.94,18,15,21,0.00
2012-8-30,84.0,82.7,81.0,-99.9,-99.9,-99.9,0,0,100,30.12,29.98,15,10,16,0.00
2012-8-31,85.0,83.2,82.0,-99.9,-99.9,-99.9,0,0,100,30.17,30.08,10,7,11,0.00
2012-9-1,84.0,82.8,81.0,-99.9,-99.9,-99.9,0,0,100,30.14,30.04,18,12,21,0.00
2012-9-2,83.0,82.2,81.0,-99.9,-99.9,-99.9,0,0,100,30.07,29.99,16,12,18,0.00
2012-9-3,84.0,82.0,81.0,-99.9,-99.9,-99.9,0,0,100,30.07,29.99,15,8,16,0.00
2012-9-4,83.0,81.3,77.0,-99.9,-99.9,-99.9,0,0,100,30.06,29.96,17,8,29,0.00
2012-9-5,83.0,79.1,66.0,-99.9,-99.9,-99.9,0,0,100,30.03,29.94,31,3,58,0.00
2012-9-6,83.0,79.8,75.0,-99.9,-99.9,-99.9,0,0,100,30.05,29.98,20,-9,26,0.00
2012-9-7,83.0,81.3,75.0,-99.9,-99.9,-99.9,0,0,100,30.03,29.93,22,1,26,0.00
2012-9-8,86.0,82.3,79.0,-99.9,-99.9,-99.9,0,0,100,30.00,29.91,20,10,21,0.00
2012-9-9,91.0,84.3,79.0,-99.9,-99.9,-99.9,0,0,100,29.99,29.90,16,10,23,0.00
2012-9-10,87.0,80.9,77.0,-99.9,-99.9,-99.9,0,0,100,30.02,29.94,21,7,24,0.00
2012-9-11,84.0,80.9,77.0,-99.9,-99.9,-99.9,0,0,100,30.09,29.99,22,12,25,0.00
2012-9-12,84.0,82.2,74.0,-99.9,-99.9,-99.9,0,0,100,30.09,30.01,29,19,38,0.00
2012-9-13,84.0,82.2,74.0,-99.9,-99.9,-99.9,0,0,100,30.09,29.99,34,19,39,0.00
2012-9-14,83.0,81.7,78.0,-99.9,-99.9,-99.9,0,0,100,30.04,29.98,21,12,28,0.00
2012-9-15,83.0,80.8,74.0,-99.9,-99.9,-99.9,0,0,100,30.06,29.99,21,12,26,0.00
2012-9-16,83.0,81.7,79.0,-99.9,-99.9,-99.9,0,0,100,30.07,29.98,17,11,18,0.00
2012-9-17,82.0,81.2,79.0,-99.9,-99.9,-99.9,0,0,100,30.05,29.94,20,13,23,0.00
2012-9-18,85.0,81.5,76.0,-99.9,-99.9,-99.9,0,0,100,30.00,29.90,24,13,28,0.00
2012-9-19,86.0,81.3,77.0,-99.9,-99.9,-99.9,0,0,100,30.08,29.92,26,7,30,0.00
2012-9-20,83.0,81.1,76.0,-99.9,-99.9,-99.9,0,0,100,30.07,29.95,20,8,22,0.00
2012-9-21,85.0,80.7,75.0,-99.9,-99.9,-99.9,0,0,100,30.00,29.92,23,-6,26,0.00
2012-9-22,81.0,76.6,72.0,-99.9,-99.9,-99.9,0,0,100,30.04,29.93,29,-7,37,0.00
2012-9-23,81.0,78.6,75.0,-99.9,-99.9,-99.9,0,0,100,30.07,29.99,16,8,20,0.00
2012-9-24,83.0,79.9,77.0,-99.9,-99.9,-99.9,0,0,100,30.07,30.00,22,11,25,0.00
2012-9-25,83.0,81.7,78.0,-99.9,-99.9,-99.9,0,0,100,30.09,30.00,21,10,26,0.00
2012-9-26,84.0,82.4,80.0,-99.9,-99.9,-99.9,0,0,100,30.10,30.02,15,9,20,0.00
2012-9-27,85.0,82.5,79.0,-99.9,-99.9,-99.9,0,0,100,30.10,30.00,17,8,22,0.00
2012-9-28,83.0,81.7,79.0,-99.9,-99.9,-99.9,0,0,100,30.04,29.94,11,7,13,0.00
2012-9-29,86.0,82.0,78.0,-99.9,-99.9,-99.9,0,0,100,29.98,29.87,13,-15,14,0.00
2012-9-30,84.0,81.6,78.0,-99.9,-99.9,-99.9,0,0,100,29.92,29.81,17,8,18,0.00
2012-10-1,85.0,80.5,76.0,-99.9,-99.9,-99.9,0,0,100,29.89,29.79,28,13,31,0.00
2012-10-2,83.0,78.8,74.0,-99.9,-99.9,-99.9,0,0,100,30.07,29.87,24,12,28,0.00
2012-10-3,84.0,82.1,79.0,-99.9,-99.9,-99.9,0,0,100,30.18,30.06,14,9,15,0.00
2012-10-4,84.0,82.9,80.0,-99.9,-99.9,-99.9,0,0,100,30.18,30.07,22,10,25,0.00
2012-10-5,84.0,82.8,82.0,-99.9,-99.9,-99.9,0,0,100,30.12,29.96,14,10,21,0.00
2012-10-6,86.0,81.8,75.0,-99.9,-99.9,-99.9,0,0,100,30.00,29.86,24,-20,33,0.00
2012-10-7,83.0,79.4,73.0,-99.9,-99.9,-99.9,0,0,100,29.99,29.89,24,9,33,0.00
2012-10-8,85.0,82.5,81.0,-99.9,-99.9,-99.9,0,0,100,30.03,29.93,16,0,18,0.00
2012-10-9,83.0,80.7,77.0,-99.9,-99.9,-99.9,0,0,100,30.03,29.96,15,9,16,0.00
2012-10-10,83.0,81.4,79.0,-99.9,-99.9,-99.9,0,0,100,30.07,29.98,21,13,23,0.00
2012-10-11,81.0,80.3,79.0,-99.9,-99.9,-99.9,0,0,100,30.13,30.04,26,19,30,0.00
2012-10-12,80.0,79.9,79.0,-99.9,-99.9,-99.9,0,0,100,30.13,30.05,26,22,30,0.00
2012-10-13,81.0,80.3,79.0,-99.9,-99.9,-99.9,0,0,100,30.12,30.04,30,25,36,0.00
2012-10-14,82.0,81.0,80.0,-99.9,-99.9,-99.9,0,0,100,30.08,29.95,29,23,33,0.00
2012-10-15,82.0,81.2,80.0,-99.9,-99.9,-99.9,0,0,100,29.96,29.80,22,15,24,0.00
2012-10-16,81.0,78.9,74.0,-99.9,-99.9,-99.9,0,0,100,29.86,29.78,18,12,21,0.00
2012-10-17,81.0,78.5,70.0,-99.9,-99.9,-99.9,0,0,100,29.92,29.82,17,8,24,0.00
2012-10-18,83.0,80.5,75.0,-99.9,-99.9,-99.9,0,0,100,29.89,29.81,20,11,23,0.00
2012-10-19,82.0,79.1,74.0,-99.9,-99.9,-99.9,0,0,100,29.91,29.81,17,8,20,0.00
2012-10-20,80.0,78.0,75.0,-99.9,-99.9,-99.9,0,0,100,29.94,29.85,22,10,24,0.00
2012-10-21,80.0,77.8,73.0,-99.9,-99.9,-99.9,0,0,100,30.02,29.90,22,13,25,0.00
2012-10-22,80.0,79.4,78.0,-99.9,-99.9,-99.9,0,0,100,30.03,29.96,25,19,30,0.00
2012-10-23,81.0,79.3,74.0,-99.9,-99.9,-99.9,0,0,100,30.01,29.93,30,21,34,0.00
2012-10-24,81.0,79.6,74.0,-99.9,-99.9,-99.9,0,0,100,30.00,29.87,30,24,37,0.00
2012-10-25,81.0,79.8,72.0,-99.9,-99.9,-99.9,0,0,100,29.87,29.67,39,28,51,0.00
2012-10-26,81.0,76.4,70.0,-99.9,-99.9,-99.9,0,0,100,29.67,29.46,45,30,53,0.00
2012-10-27,77.0,73.0,70.0,-99.9,-99.9,-99.9,0,0,100,29.68,29.45,28,17,38,0.00
2012-10-28,78.0,72.2,67.0,-99.9,-99.9,-99.9,0,0,100,29.78,29.67,21,11,32,0.00
2012-10-29,70.0,64.4,58.0,-99.9,-99.9,-99.9,0,0,100,29.86,29.75,20,13,29,0.00
2012-10-30,71.0,62.0,55.0,-99.9,-99.9,-99.9,0,0,100,29.99,29.83,19,10,27,0.00
2012-10-31,72.0,64.5,58.0,-99.9,-99.9,-99.9,0,0,100,30.08,29.98,14,6,19,0.00
2012-11-1,78.0,69.0,60.0,-99.9,-99.9,-99.9,0,0,100,30.07,29.97,14,6,21,0.00
2012-11-2,77.0,70.6,65.0,-99.9,-99.9,-99.9,0,0,100,30.09,30.01,13,7,17,0.00
2012-11-3,77.0,71.6,63.0,-99.9,-99.9,-99.9,0,0,100,30.14,30.05,13,7,15,0.00
2012-11-4,80.0,73.1,65.0,-99.9,-99.9,-99.9,0,0,100,30.12,30.02,10,6,13,0.00
2012-11-5,78.0,72.3,67.0,-99.9,-99.9,-99.9,0,0,100,30.03,29.94,8,5,11,0.00
2012-11-6,81.0,73.3,68.0,-99.9,-99.9,-99.9,0,0,100,29.95,29.82,15,7,20,0.00
2012-11-7,69.0,65.8,60.0,-99.9,-99.9,-99.9,0,0,100,29.99,29.84,22,11,29,0.00
2012-11-8,67.0,61.3,56.0,-99.9,-99.9,-99.9,0,0,100,30.11,29.97,20,13,27,0.00
2012-11-9,72.0,67.0,59.0,-99.9,-99.9,-99.9,0,0,100,30.21,30.10,22,15,29,0.00
2012-11-10,74.0,72.7,71.0,-99.9,-99.9,-99.9,0,0,100,30.27,30.18,27,17,30,0.00
2012-11-11,77.0,75.7,74.0,-99.9,-99.9,-99.9,0,0,100,30.26,30.19,30,22,33,0.00
2012-11-12,77.0,76.6,76.0,-99.9,-99.9,-99.9,0,0,100,30.22,30.14,28,20,32,0.00
2012-11-13,78.0,76.6,76.0,-99.9,-99.9,-99.9,0,0,100,30.16,30.06,19,14,24,0.00
2012-11-14,78.0,75.8,76.0,-99.9,-99.9,-99.9,0,0,100,30.14,30.06,17,14,20,0.00
2012-11-15,76.0,73.8,68.0,-99.9,-99.9,-99.9,0,0,100,30.11,30.04,19,10,22,0.00
2012-11-16,75.0,69.2,65.0,-99.9,-99.9,-99.9,0,0,100,30.11,30.04,18,10,20,0.00
2012-11-17,76.0,72.7,66.0,-99.9,-99.9,-99.9,0,0,100,30.11,30.04,26,15,32,0.00
2012-11-18,76.0,72.9,69.0,-99.9,-99.9,-99.9,0,0,100,30.11,30.03,27,18,30,0.00
2012-11-19,69.0,64.7,60.0,-99.9,-99.9,-99.9,0,0,100,30.12,30.03,19,12,24,0.00
2012-11-20,73.0,65.2,60.0,-99.9,-99.9,-99.9,0,0,100,30.04,29.93,21,12,25,0.00
2012-11-21,73.0,65.8,61.0,-99.9,-99.9,-99.9,0,0,100,30.03,29.93,29,15,35,0.00
2012-11-22,71.0,63.8,59.0,-99.9,-99.9,-99.9,0,0,100,30.11,29.99,28,17,32,0.00
2012-11-23,73.0,64.9,58.0,-99.9,-99.9,-99.9,0,0,100,30.14,30.06,24,14,28,0.00
2012-11-24,74.0,64.7,55.0,-99.9,-99.9,-99.9,0,0,100,30.12,30.01,16,7,20,0.00
2012-11-25,74.0,66.4,56.0,-99.9,-99.9,-99.9,0,0,100,30.14,30.05,11,6,14,0.00
2012-11-26,76.0,72.9,64.0,-99.9,-99.9,-99.9,0,0,100,30.21,30.11,18,10,21,0.00
2012-11-27,76.0,74.9,73.0,-99.9,-99.9,-99.9,0,0,100,30.21,30.10,16,12,20,0.00
2012-11-28,75.0,70.8,67.0,-99.9,-99.9,-99.9,0,0,100,30.19,30.10,25,12,29,0.00
2012-11-29,75.0,74.0,71.0,-99.9,-99.9,-99.9,0,0,100,30.23,30.15,26,22,32,0.00
2012-11-30,74.0,73.4,73.0,-99.9,-99.9,-99.9,0,0,100,30.24,30.14,26,21,30,0.00
2012-12-1,75.0,74.3,74.0,-99.9,-99.9,-99.9,0,0,100,30.21,30.14,25,18,29,0.00
2012-12-2,76.0,74.7,74.0,-99.9,-99.9,-99.9,0,0,100,30.25,30.16,23,20,28,0.00
2012-12-3,75.0,73.9,73.0,-99.9,-99.9,-99.9,0,0,100,30.26,30.18,22,17,26,0.00
2012-12-4,76.0,74.0,73.0,-99.9,-99.9,-99.9,0,0,100,30.25,30.16,22,17,26,0.00
2012-12-5,76.0,74.5,72.0,-99.9,-99.9,-99.9,0,0,100,30.16,30.03,19,12,22,0.00
2012-12-6,76.0,73.6,71.0,-99.9,-99.9,-99.9,0,0,100,30.04,29.92,24,11,32,0.00
2012-12-7,76.0,74.9,71.0,-99.9,-99.9,-99.9,0,0,100,30.00,29.92,22,12,26,0.00
2012-12-8,78.0,76.7,75.0,-99.9,-99.9,-99.9,0,0,100,30.05,29.97,18,11,20,0.00
2012-12-9,79.0,76.4,71.0,-99.9,-99.9,-99.9,0,0,100,30.10,30.01,17,2,20,0.00
2012-12-10,79.0,76.8,73.0,-99.9,-99.9,-99.9,0,0,100,30.04,29.92,22,-70,26,0.00
2012-12-11,79.0,77.0,73.0,-99.9,-99.9,-99.9,0,0,100,30.07,29.92,24,15,26,0.00
2012-12-12,78.0,77.4,74.0,-99.9,-99.9,-99.9,0,0,100,30.10,30.03,25,-42,28,0.00
2012-12-13,76.0,72.1,67.0,-99.9,-99.9,-99.9,0,0,100,30.11,30.02,22,10,27,0.00
2012-12-14,76.0,72.2,65.0,-99.9,-99.9,-99.9,0,0,100,30.14,30.06,24,16,32,0.00
2012-12-15,76.0,74.7,74.0,-99.9,-99.9,-99.9,0,0,100,30.12,30.03,21,16,24,0.00
2012-12-16,76.0,74.6,72.0,-99.9,-99.9,-99.9,0,0,100,30.07,29.96,18,12,20,0.00
2012-12-17,80.0,74.4,69.0,-99.9,-99.9,-99.9,0,0,100,29.99,29.90,15,6,19,0.00
2012-12-18,82.0,74.6,69.0,-99.9,-99.9,-99.9,0,0,100,30.02,29.91,12,6,17,0.00
2012-12-19,77.0,72.2,63.0,-99.9,-99.9,-99.9,0,0,100,30.11,30.01,14,0,16,0.00
2012-12-20,76.0,75.1,73.0,-99.9,-99.9,-99.9,0,0,100,30.11,29.98,23,14,25,0.00
2012-12-21,73.0,64.5,52.0,-99.9,-99.9,-99.9,0,0,100,30.17,29.95,22,14,29,0.00
2012-12-22,65.0,54.4,46.0,-99.9,-99.9,-99.9,0,0,100,30.25,30.17,18,12,27,0.00
2012-12-23,70.0,62.2,52.0,-99.9,-99.9,-99.9,0,0,100,30.25,30.15,13,9,18,0.00
2012-12-24,74.0,68.5,62.0,-99.9,-99.9,-99.9,0,0,100,30.16,30.01,21,-5,23,0.00
2012-12-25,75.0,70.6,63.0,-99.9,-99.9,-99.9,0,0,100,30.06,29.95,24,11,28,0.00
2012-12-26,81.0,75.0,64.0,-99.9,-99.9,-99.9,0,0,100,29.98,29.84,25,16,32,0.00
2012-12-27,68.0,60.7,53.0,-99.9,-99.9,-99.9,0,0,100,30.08,29.98,16,0,20,0.00
2012-12-28,76.0,69.5,59.0,-99.9,-99.9,-99.9,0,0,100,30.10,29.98,21,11,24,0.00
2012-12-29,80.0,75.7,63.0,-99.9,-99.9,-99.9,0,0,100,30.10,29.93,23,15,28,0.00
2012-12-30,68.0,60.3,50.0,-99.9,-99.9,-99.9,0,0,100,30.30,30.10,28,18,34,0.00
2012-12-31,73.0,69.4,67.0,-99.9,-99.9,-99.9,0,0,100,30.32,30.21,22,16,28,0.00
2013-1-1,74.0,73.2,72.0,-99.9,-99.9,-99.9,0,0,100,30.21,30.07,22,14,27,0.00